Location: Castle
(40.7167°S, 175.9500°E)
Time: 17:32:42
(UTC+00:00)

Meteor 2-5 Rocket - Pass Details

Date: 04 August 2024
Orbit: 833 x 910 km, 81.2° (Epoch: 17 September)

Event Time Altitude Azimuth Distance (km) Brightness Sun altitude
Rises 17:01:36 0° 358° (N) 3,519 6.9 -26.1°
Reaches altitude 10° 17:04:02 10° 359° (N) 2,591 6.2 -25.7°
Maximum altitude 17:09:57 75° 83° (E) 954 4.0 -24.5°
Drops below altitude 10° 17:15:57 10° 167° (SSE) 2,625 6.4 -23.4°
Sets 17:18:27 0° 168° (SSE) 3,569 7.1 -22.9°
